Flag for Mexico Weather past 2 weeks in Merida, Yucatán, Mexico

Now
75 °F

Clear.


Feels Like: 74 °F
Forecast: 75 / 92 °F
Wind: No wind

Location: Aerop. Internacional Merida - Yuc

Current Time: Sep 5, 2015 at 6:13:51 AM

Latest Report: Sep 5, 2015 at 5:44 AM


Visibility: 7 mi

Pressure: 29.95 "Hg

Humidity: 94%

Dew point: 73 °F

Location of MeridaLocation

Historic Weather in Merida — Graph

°F

Merida temperature yesterday

Maximum temperature yesterday: 95 °F (at 1:50 PM)
Minimum temperature yesterday: 75 °F (at 2:53 AM)
Average temperature yesterday: 84 °F

Past Weeks' High & Low Weather Summary

 TemperatureHumidityPressure
High97 °F (Sep 3, 3:45 PM)100% (Aug 27, 2:52 AM)30.03 "Hg (Aug 27, 2:52 AM)
Low73 °F (Aug 29, 1:46 AM)41% (Sep 4, 3:45 PM)29.83 "Hg (Sep 3, 5:47 PM)
Average82 °F80%29.94 "Hg
* Reported Aug 21 4:11 AM — Sep 5 4:45 AM, Merida, Weather by CustomWeather, © 2015

Note: Actual official high and low records may vary slightly from our data, if they occured in-between our weather recording intervals... More about our weather records

Advertising

Merida weather history for previous 24 hours

 ConditionsComfort  
Time TempWeatherWind HumidityBarometerVisibility
4:45 AM
Sat, Sep 5
75 °FClear.7 mph94%29.93 "Hg6 mi
2:45 AM77 °FClear.12 mph89%29.92 "Hg7 mi
1:48 AM79 °FClear.14 mph84%29.94 "Hg7 mi
12:47 AM79 °FClear.9 mph84%29.94 "Hg7 mi
9:49 PM
Fri, Sep 4
82 °FPassing clouds.14 mph79%29.95 "Hg7 mi
8:45 PM84 °FPassing clouds.16 mph70%29.92 "Hg7 mi
7:47 PM84 °FBroken clouds.13 mph74%29.89 "Hg7 mi
6:45 PM84 °FBroken clouds.8 mph74%29.91 "Hg7 mi
5:43 PM86 °FBroken clouds.6 mph70%29.90 "Hg7 mi
4:45 PM88 °FBroken clouds.20 mph66%29.88 "Hg7 mi
3:45 PM95 °FPartly sunny.13 mph41%29.93 "Hg7 mi
2:44 PM95 °FPartly sunny.6 mph47%29.89 "Hg7 mi
1:50 PM95 °FPartly sunny.15 mph44%29.91 "Hg7 mi
12:47 PM91 °FPartly sunny.7 mph59%29.97 "Hg7 mi
11:50 AM90 °FPartly sunny.5 mph67%29.95 "Hg7 mi
10:48 AM88 °FPartly sunny.10 mph70%29.96 "Hg7 mi
9:45 AM86 °FPartly sunny.12 mph79%29.96 "Hg7 mi
7:43 AM79 °FScattered clouds.5 mph89%29.94 "Hg7 mi
6:50 AM75 °FPassing clouds.No wind94%29.93 "Hg5 mi
Weather by CustomWeather, © 2015

See weather overviewHow to use our weather pages